Weather in Shemonaikha

Kazakhstan     50˚37′30″N   81˚54′42″E
temp.,
°C
wind,
m/s
gust,
m/s
humid.,
%
clouds,
%
prec.,
mm/h
press.,
hPa
HPBL,
m
1 december, tue
tue100:00−15˚n119999 0.1 105120
03:00−16˚sse1199100 0.0 105020
06:00−17˚s119998 0.1 105120
09:00−17˚s119873 0.0 105120
12:00−14˚wsw119468 0.0 105148
15:00−15˚nw119511 0.0 105020
18:00−17˚n119913 0.0 105020
21:00−17˚nw0010074 0.0 105020
2 december, wed
wed200:00−18˚s129977 0.0 105020
03:00−19˚s129968 0.0 105020
06:00−19˚ssw119942 0.0 105020
09:00−19˚ssw119828 0.0 105020
12:00−16˚ssw119520 0.0 104844
15:00−16˚nnw01940 0.0 104720
18:00−18˚nne11960 0.0 104620
21:00−18˚ene11940 0.0 104520
3 december, thu
thu300:00−18˚ese00900 0.0 104420
03:00−17˚e11840 0.0 104320
06:00−17˚ene11810 0.0 104220
09:00−16˚e11770 0.0 104120
12:00−12˚ese11790 0.0 103921
15:00−13˚nne11750 0.0 103921
18:00−15˚ne11740 0.0 103820
21:00−14˚se11700 0.0 103720
4 december, fri
fri400:00−14˚se11700 0.0 103620
03:00−14˚se11700 0.0 103521
06:00−14˚ese11715 0.0 103421
09:00−14˚se116847 0.0 103421
12:00−10˚sse117332 0.0 103221
15:00−12˚s11701 0.0 103221
18:00−14˚e11651 0.0 103221
21:00−14˚sse11630 0.0 103321
5 december, sat
sat500:00−15˚se01740 0.0 103520
03:00−16˚se11770 0.0 103520
06:00−15˚ne118129 0.0 103620
09:00−14˚ne1184100 0.0 103720
12:00−12˚w018794 0.0 103721
15:00−13˚n118623 0.0 103720
18:00−16˚n118611 0.0 103820
21:00−17˚n11870 0.0 103920